Weather History for Marshfield, MA

Change the Weather History Date:

Friday, December 23, 2011

  Actual Average (KPYM) Record (KPYM)
Temperature  
Mean Temperature 38 °F -  
Max Temperature 44 °F 39 °F 68 °F (1984)
Min Temperature 33 °F 22 °F -4 °F (1989)
Degree Days  
Heating Degree Days 26    
Moisture  
Dew Point 38 °F    
Average Humidity 89    
Maximum Humidity 100    
Minimum Humidity 75    
Precipitation  
Precipitation 0.40 in - - ()
Sea Level Pressure  
Sea Level Pressure 29.98 in    
Wind  
Wind Speed 4 mph (NW)    
Max Wind Speed 10 mph    
Max Gust Speed 17 mph    
Visibility 9 miles    
Events Rain    
Averages and records for this station are not official NWS values.
T = Trace of Precipitation, MM = Missing Value Source: NWS Daily Summary

Daily Weather History Graph

Daily Weather History Graph

Search for Another Location

Airport:

Trip Planner

Search our weather history database for the weather conditions in past years. The results will help you decide how hot, cold, wet, or windy it might be!

Date:

Astronomy

Dec. 23, 2011 Rise Set
Actual Time 7:08 AM EST 4:14 PM EST
Civil Twilight 6:36 AM EST 4:46 PM EST
Nautical Twilight 6:01 AM EST 5:22 PM EST
Astronomical Twilight 5:27 AM EST 5:56 PM EST
Moon 5:54 AM EST (12/23) 3:20 PM EST (12/23)
Length of Visible Light 10h 10m
Length of Day
9h 06m
Waning Crescent, 1% of the Moon is Illuminated
Dec 23
Waning Crescent
Dec 24
New
Jan 1
First Quarter
Jan 9
Full
Jan 16
Last Quarter

Hourly Weather History & Observations

Time (EST) Temp. Windchill Dew Point Humidity Pressure Visibility Wind Dir Wind Speed Gust Speed Precip Events Conditions
12:15 AM 44.6 °F - 39.2 °F 81% 30.05 in 10.0 mi Calm Calm - N/A   Overcast
12:35 AM 44.6 °F - 39.2 °F 81% 30.02 in 10.0 mi Calm Calm - N/A   Overcast
12:55 AM 44.6 °F - 39.2 °F 81% 30.02 in 10.0 mi Calm Calm - N/A   Overcast
1:15 AM 44.6 °F - 39.2 °F 81% 30.02 in 10.0 mi Calm Calm - N/A Rain Light Rain
1:55 AM 44.6 °F - 42.8 °F 93% 30.00 in 6.0 mi Calm Calm - 0.03 in Rain Light Rain
2:15 AM 44.6 °F 41.4 °F 42.8 °F 93% 29.96 in 5.0 mi North 5.8 mph - 0.02 in Rain Rain
2:35 AM 44.6 °F 43.1 °F 42.8 °F 93% 29.94 in 10.0 mi NE 3.5 mph - 0.03 in Rain Light Rain
2:55 AM 44.6 °F - 42.8 °F 93% 29.97 in 6.0 mi Calm Calm - 0.05 in Rain Light Rain
3:15 AM 44.6 °F - 42.8 °F 93% 29.96 in 4.0 mi Calm Calm - 0.03 in Rain Rain
3:35 AM 44.6 °F - 42.8 °F 93% 29.95 in 5.0 mi Calm Calm - 0.08 in Rain Light Rain
3:55 AM 44.6 °F 41.4 °F 42.8 °F 93% 29.94 in 3.0 mi North 5.8 mph - 0.10 in Rain Rain
4:15 AM 44.6 °F 40.2 °F 44.6 °F 100% 29.91 in 6.0 mi NNE 8.1 mph - 0.02 in Rain Light Rain
4:35 AM 44.6 °F 39.7 °F 42.8 °F 93% 29.92 in 6.0 mi NNE 9.2 mph - 0.03 in Rain Rain
4:55 AM 44.6 °F 40.7 °F 42.8 °F 93% 29.92 in 5.0 mi NNE 6.9 mph - 0.06 in Rain Rain
5:15 AM 44.6 °F 40.2 °F 42.8 °F 93% 29.90 in 7.0 mi NNE 8.1 mph - 0.02 in Rain Rain
5:35 AM 44.6 °F 40.2 °F 42.8 °F 93% 29.91 in 9.0 mi North 8.1 mph - 0.05 in Rain Rain
5:55 AM 44.6 °F 40.2 °F 42.8 °F 93% 29.91 in 4.0 mi North 8.1 mph - 0.08 in Rain Rain
6:15 AM 44.6 °F 39.2 °F 42.8 °F 93% 29.90 in 5.0 mi North 10.4 mph - 0.03 in Rain Rain
6:35 AM 42.8 °F 37.5 °F 41.0 °F 93% 29.89 in 9.0 mi North 9.2 mph - 0.06 in Rain Light Rain
6:55 AM 42.8 °F 37.0 °F 41.0 °F 93% 29.88 in 10.0 mi NNE 10.4 mph 17.3 mph 0.06 in   Overcast
7:15 AM 42.8 °F 38.0 °F 39.2 °F 87% 29.87 in 10.0 mi North 8.1 mph - N/A   Light Drizzle
7:35 AM 42.8 °F 38.0 °F 39.2 °F 87% 29.87 in 10.0 mi North 8.1 mph - N/A   Light Drizzle
7:55 AM 42.8 °F 37.0 °F 39.2 °F 87% 29.86 in 4.0 mi North 10.4 mph - N/A Rain Light Rain
8:15 AM 42.8 °F 37.5 °F 39.2 °F 87% 29.89 in 4.0 mi North 9.2 mph - 0.01 in Rain Light Rain
8:35 AM 42.8 °F 38.0 °F 39.2 °F 87% 29.89 in 2.5 mi NNW 8.1 mph - 0.01 in Rain Rain
8:55 AM 42.8 °F 38.0 °F 39.2 °F 87% 29.89 in 4.0 mi North 8.1 mph 17.3 mph 0.02 in Rain Light Rain
9:15 AM 42.8 °F 37.5 °F 39.2 °F 87% 29.90 in 10.0 mi NNW 9.2 mph 16.1 mph N/A   Light Drizzle
9:35 AM 42.8 °F 37.5 °F 39.2 °F 87% 29.89 in 10.0 mi NNW 9.2 mph - N/A   Light Drizzle
10:15 AM 42.8 °F 40.1 °F 39.2 °F 87% 29.90 in 10.0 mi NNW 4.6 mph - N/A   Overcast
10:35 AM 42.8 °F 38.0 °F 39.2 °F 87% 29.90 in 10.0 mi NW 8.1 mph - N/A   Overcast
10:55 AM 42.8 °F 39.3 °F 39.2 °F 87% 29.90 in 10.0 mi NW 5.8 mph - N/A   Overcast
11:15 AM 42.8 °F 38.6 °F 39.2 °F 87% 29.90 in 10.0 mi NW 6.9 mph - N/A   Overcast
11:35 AM 41.0 °F 36.4 °F 39.2 °F 93% 29.91 in 10.0 mi NW 6.9 mph - N/A   Overcast
11:55 AM 41.0 °F 37.1 °F 37.4 °F 87% 29.90 in 10.0 mi WNW 5.8 mph - N/A   Overcast
12:15 PM 41.0 °F 37.1 °F 37.4 °F 87% 29.91 in 10.0 mi NW 5.8 mph - N/A   Overcast
12:35 PM 41.0 °F 36.4 °F 37.4 °F 87% 29.91 in 10.0 mi WNW 6.9 mph - N/A   Overcast
1:15 PM 39.2 °F 35.0 °F 37.4 °F 93% 29.92 in 10.0 mi NW 5.8 mph - N/A   Overcast
1:35 PM 39.2 °F 33.0 °F 37.4 °F 93% 29.93 in 10.0 mi WNW 9.2 mph - N/A   Overcast
1:55 PM 39.2 °F 33.6 °F 37.4 °F 93% 29.94 in 10.0 mi WNW 8.1 mph - N/A   Overcast
2:15 PM 41.0 °F 36.4 °F 37.4 °F 87% 29.95 in 10.0 mi WNW 6.9 mph - N/A   Overcast
2:35 PM 41.0 °F 38.0 °F 37.4 °F 87% 29.95 in 10.0 mi NW 4.6 mph - N/A   Overcast
2:55 PM 42.8 °F 39.3 °F 37.4 °F 81% 29.96 in 10.0 mi WNW 5.8 mph - N/A   Overcast
3:15 PM 42.8 °F 39.3 °F 37.4 °F 81% 29.98 in 10.0 mi WNW 5.8 mph - N/A   Overcast
3:55 PM 42.8 °F 40.1 °F 37.4 °F 81% 30.00 in 10.0 mi WNW 4.6 mph - N/A   Overcast
4:15 PM 41.0 °F - 37.4 °F 87% 30.00 in 10.0 mi Calm Calm - N/A   Mostly Cloudy
4:35 PM 39.2 °F 35.9 °F 35.6 °F 87% 30.01 in 10.0 mi West 4.6 mph - N/A   Partly Cloudy
4:55 PM 39.2 °F 35.9 °F 35.6 °F 87% 30.03 in 10.0 mi West 4.6 mph - N/A   Clear
5:35 PM 37.4 °F 33.8 °F 35.6 °F 93% 30.04 in 10.0 mi West 4.6 mph - N/A   Partly Cloudy
5:55 PM 35.6 °F 32.8 °F 33.8 °F 93% 30.05 in 10.0 mi SW 3.5 mph - N/A   Partly Cloudy
6:15 PM 35.6 °F 32.8 °F 33.8 °F 93% 30.06 in 10.0 mi West 3.5 mph - N/A   Light Drizzle
6:35 PM 35.6 °F 32.8 °F 33.8 °F 93% 30.06 in 10.0 mi West 3.5 mph - N/A   Light Drizzle
6:55 PM 33.8 °F 30.8 °F 33.8 °F 100% 30.08 in 10.0 mi WSW 3.5 mph - N/A   Light Drizzle
7:15 PM 33.8 °F 29.6 °F 32.0 °F 93% 30.09 in 10.0 mi West 4.6 mph - N/A   Light Drizzle
7:35 PM 33.8 °F 30.8 °F 33.8 °F 100% 30.09 in 10.0 mi West 3.5 mph - N/A   Light Drizzle
7:55 PM 35.6 °F 31.7 °F 33.8 °F 93% 30.11 in 10.0 mi West 4.6 mph - N/A   Light Drizzle
8:15 PM 35.6 °F 30.7 °F 35.6 °F 100% 30.12 in 10.0 mi WNW 5.8 mph - N/A   Light Drizzle
8:35 PM 37.4 °F 32.8 °F 37.4 °F 100% 30.12 in 10.0 mi NW 5.8 mph - N/A   Light Drizzle
8:55 PM 37.4 °F 30.8 °F 35.6 °F 93% 30.14 in 10.0 mi NW 9.2 mph - N/A   Mostly Cloudy
9:15 PM 37.4 °F 32.1 °F 32.0 °F 81% 30.14 in 10.0 mi NW 6.9 mph - N/A   Mostly Cloudy
9:35 PM 37.4 °F 32.1 °F 32.0 °F 81% 30.15 in 10.0 mi WNW 6.9 mph - N/A   Mostly Cloudy
9:55 PM 37.4 °F 32.1 °F 30.2 °F 75% 30.15 in 10.0 mi WNW 6.9 mph - N/A   Partly Cloudy
10:15 PM 35.6 °F 28.6 °F 28.4 °F 75% 30.16 in 10.0 mi NW 9.2 mph - N/A   Clear
10:35 PM 35.6 °F 28.6 °F 26.6 °F 70% 30.16 in 10.0 mi NW 9.2 mph - N/A   Clear
10:55 PM 35.6 °F 29.2 °F 26.6 °F 70% 30.17 in 10.0 mi NW 8.1 mph - N/A   Clear
11:15 PM 35.6 °F 30.7 °F 26.6 °F 70% 30.18 in 10.0 mi NW 5.8 mph - N/A   Clear
11:35 PM 33.8 °F 27.7 °F 26.6 °F 75% 30.18 in 10.0 mi NW 6.9 mph - N/A   Clear
11:55 PM 33.8 °F 27.7 °F 26.6 °F 75% 30.18 in 10.0 mi NW 6.9 mph - N/A   Clear